Time,TemperatureF,DewpointF,PressureIn,WindDirection,WindDirectionDegrees,WindSpeedMPH,WindSpeedGustMPH,Humidity,HourlyPrecipIn,Conditions,Clouds,dailyrainin,SolarRadiationWatts/m^2,SoftwareType,DateUTC
2013-05-24 00:00:00,78.9,75.1,30.01,NE,51,0.0,0.0,88,0.00,,CLR,0.00,0.00,VWS V14.01,2013-05-24 04:00:00,
2013-05-24 00:01:00,78.9,75.1,30.01,NE,51,0.0,0.0,88,0.00,,CLR,0.00,0.00,VWS V14.01,2013-05-24 04:01:00,
2013-05-24 00:05:00,78.8,74.9,30.01,NE,51,0.0,0.0,88,0.00,,CLR,0.00,0.00,VWS V14.01,2013-05-24 04:05:00,
2013-05-24 00:06:00,78.8,74.9,30.01,NE,51,0.0,0.0,88,0.00,,CLR,0.00,0.00,VWS V14.01,2013-05-24 04:06:00,
2013-05-24 00:10:00,78.7,74.8,30.00,NE,51,0.0,0.0,88,0.00,,CLR,0.00,0.00,VWS V14.01,2013-05-24 04:10:00,
2013-05-24 00:11:00,78.7,74.8,30.00,NE,51,0.0,0.0,88,0.00,,CLR,0.00,0.00,VWS V14.01,2013-05-24 04:11:00,
2013-05-24 00:15:00,78.6,74.8,30.00,NE,51,0.0,0.0,88,0.00,,CLR,0.00,0.00,VWS V14.01,2013-05-24 04:15:00,
2013-05-24 00:16:00,78.5,74.7,30.00,NE,51,0.0,0.0,88,0.00,,CLR,0.00,0.00,VWS V14.01,2013-05-24 04:16:00,
2013-05-24 00:20:00,78.5,75.0,30.00,NE,51,0.0,0.0,89,0.00,,CLR,0.00,0.00,VWS V14.01,2013-05-24 04:20:00,
2013-05-24 00:21:00,78.5,75.0,30.00,NE,51,0.0,0.0,89,0.00,,CLR,0.00,0.00,VWS V14.01,2013-05-24 04:21:00,
2013-05-24 00:25:00,78.4,74.9,30.00,NE,51,0.0,0.0,89,0.00,,CLR,0.00,0.00,VWS V14.01,2013-05-24 04:25:00,
2013-05-24 00:26:00,78.3,74.8,30.00,NE,55,2.0,2.0,89,0.00,,CLR,0.00,0.00,VWS V14.01,2013-05-24 04:26:00,
2013-05-24 00:30:00,78.3,74.8,30.00,WSW,249,2.0,5.0,89,0.00,,CLR,0.00,0.00,VWS V14.01,2013-05-24 04:30:00,
2013-05-24 00:31:00,78.2,74.7,30.00,WSW,238,3.0,4.0,89,0.00,,CLR,0.00,0.00,VWS V14.01,2013-05-24 04:31:00,
2013-05-24 00:35:00,78.2,74.7,30.00,WSW,239,2.0,4.0,89,0.00,,CLR,0.00,0.00,VWS V14.01,2013-05-24 04:35:00,
2013-05-24 00:36:00,78.2,74.4,30.00,WSW,245,1.0,3.0,88,0.00,,CLR,0.00,0.00,VWS V14.01,2013-05-24 04:36:00,
2013-05-24 00:40:00,78.2,74.4,30.00,West,260,2.0,4.0,88,0.00,,CLR,0.00,0.00,VWS V14.01,2013-05-24 04:40:00,
2013-05-24 00:41:00,78.3,74.5,30.00,SW,234,3.0,4.0,88,0.00,,CLR,0.00,0.00,VWS V14.01,2013-05-24 04:41:00,
2013-05-24 00:45:00,78.4,74.6,30.00,WSW,248,2.0,4.0,88,0.00,,CLR,0.00,0.00,VWS V14.01,2013-05-24 04:45:00,
2013-05-24 00:46:00,78.4,74.2,29.99,WSW,242,3.0,4.0,87,0.00,,CLR,0.00,0.00,VWS V14.01,2013-05-24 04:46:00,
2013-05-24 00:50:00,78.5,74.3,30.00,WSW,242,1.0,2.0,87,0.00,,CLR,0.00,0.00,VWS V14.01,2013-05-24 04:50:00,
2013-05-24 00:51:00,78.5,74.3,30.00,West,270,1.0,5.0,87,0.00,,CLR,0.00,0.00,VWS V14.01,2013-05-24 04:51:00,
2013-05-24 00:55:00,78.5,74.3,30.00,WSW,258,4.0,5.0,87,0.00,,CLR,0.00,0.00,VWS V14.01,2013-05-24 04:55:00,
2013-05-24 00:56:00,78.5,74.0,29.99,West,261,1.0,3.0,86,0.00,,CLR,0.00,0.00,VWS V14.01,2013-05-24 04:56:00,
2013-05-24 01:00:00,78.5,74.0,29.99,West,261,1.0,3.0,86,0.00,,CLR,0.00,0.00,VWS V14.01,2013-05-24 05:00:00,
2013-05-24 01:01:00,78.4,73.9,29.99,West,261,2.0,4.0,86,0.00,,CLR,0.00,0.00,VWS V14.01,2013-05-24 05:01:00,
2013-05-24 01:05:00,78.4,73.9,30.00,West,261,1.0,3.0,86,0.00,,CLR,0.00,0.00,VWS V14.01,2013-05-24 05:05:00,
2013-05-24 01:06:00,78.3,73.8,30.00,West,261,2.0,3.0,86,0.00,,CLR,0.00,0.00,VWS V14.01,2013-05-24 05:06:00,
2013-05-24 01:10:00,78.3,73.8,30.00,West,261,1.0,2.0,86,0.00,,CLR,0.00,0.00,VWS V14.01,2013-05-24 05:10:00,
2013-05-24 01:11:00,78.2,73.7,30.00,West,261,0.0,1.0,86,0.00,,CLR,0.00,0.00,VWS V14.01,2013-05-24 05:11:00,
2013-05-24 01:15:00,78.2,73.7,30.00,West,261,0.0,3.0,86,0.00,,CLR,0.00,0.00,VWS V14.01,2013-05-24 05:15:00,
2013-05-24 01:16:00,78.1,73.6,29.99,West,261,0.0,2.0,86,0.00,,CLR,0.00,0.00,VWS V14.01,2013-05-24 05:16:00,
2013-05-24 01:20:00,78.0,73.5,29.99,West,277,2.0,2.0,86,0.00,,CLR,0.00,0.00,VWS V14.01,2013-05-24 05:20:00,
2013-05-24 01:21:00,77.9,73.4,30.00,West,279,3.0,3.0,86,0.00,,CLR,0.00,0.00,VWS V14.01,2013-05-24 05:21:00,
2013-05-24 01:25:00,77.9,73.4,30.00,West,279,0.0,0.0,86,0.00,,CLR,0.00,0.00,VWS V14.01,2013-05-24 05:25:00,
2013-05-24 01:26:00,77.8,73.3,29.99,West,279,0.0,1.0,86,0.00,,CLR,0.00,0.00,VWS V14.01,2013-05-24 05:26:00,
2013-05-24 01:30:00,77.7,72.8,29.99,West,279,1.0,1.0,85,0.00,,CLR,0.00,0.00,VWS V14.01,2013-05-24 05:30:00,
2013-05-24 01:31:00,77.7,72.8,29.99,West,279,2.0,3.0,85,0.00,,CLR,0.00,0.00,VWS V14.01,2013-05-24 05:31:00,
2013-05-24 01:35:00,77.6,72.7,29.99,West,279,1.0,2.0,85,0.00,,CLR,0.00,0.00,VWS V14.01,2013-05-24 05:35:00,
2013-05-24 01:36:00,77.6,72.7,29.99,West,279,1.0,2.0,85,0.00,,CLR,0.00,0.00,VWS V14.01,2013-05-24 05:36:00,
2013-05-24 01:40:00,77.5,72.6,29.99,West,279,1.0,2.0,85,0.00,,CLR,0.00,0.00,VWS V14.01,2013-05-24 05:40:00,
2013-05-24 01:41:00,77.4,72.5,29.98,West,279,1.0,3.0,85,0.00,,CLR,0.00,0.00,VWS V14.01,2013-05-24 05:41:00,
2013-05-24 01:45:00,77.3,72.8,29.98,West,279,0.0,2.0,86,0.00,,CLR,0.00,0.00,VWS V14.01,2013-05-24 05:45:00,
2013-05-24 01:46:00,77.3,72.8,29.98,West,279,0.0,2.0,86,0.00,,CLR,0.00,0.00,VWS V14.01,2013-05-24 05:46:00,
2013-05-24 01:50:00,77.3,72.8,29.98,West,279,2.0,2.0,86,0.00,,CLR,0.00,0.00,VWS V14.01,2013-05-24 05:50:00,
2013-05-24 01:51:00,77.2,72.7,29.98,West,279,3.0,3.0,86,0.00,,CLR,0.00,0.00,VWS V14.01,2013-05-24 05:51:00,
2013-05-24 01:55:00,77.2,72.7,29.98,West,279,0.0,2.0,86,0.00,,CLR,0.00,0.00,VWS V14.01,2013-05-24 05:55:00,
2013-05-24 01:56:00,77.2,72.7,29.99,West,279,1.0,2.0,86,0.00,,CLR,0.00,0.00,VWS V14.01,2013-05-24 05:56:00,
2013-05-24 02:00:00,77.2,73.0,29.99,West,279,0.0,1.0,87,0.00,,CLR,0.00,0.00,VWS V14.01,2013-05-24 06:00:00,
2013-05-24 02:01:00,77.1,72.6,29.98,West,279,0.0,0.0,86,0.00,,CLR,0.00,0.00,VWS V14.01,2013-05-24 06:01:00,
2013-05-24 02:05:00,77.1,72.9,29.98,West,279,1.0,2.0,87,0.00,,CLR,0.00,0.00,VWS V14.01,2013-05-24 06:05:00,
2013-05-24 02:06:00,77.1,72.9,29.98,West,279,3.0,3.0,87,0.00,,CLR,0.00,0.00,VWS V14.01,2013-05-24 06:06:00,
2013-05-24 02:10:00,77.1,72.9,29.98,West,279,3.0,3.0,87,0.00,,CLR,0.00,0.00,VWS V14.01,2013-05-24 06:10:00,
2013-05-24 02:11:00,77.1,72.9,29.98,West,279,1.0,4.0,87,0.00,,CLR,0.00,0.00,VWS V14.01,2013-05-24 06:11:00,
2013-05-24 02:15:00,77.1,72.9,29.98,West,279,1.0,2.0,87,0.00,,CLR,0.00,0.00,VWS V14.01,2013-05-24 06:15:00,
2013-05-24 02:16:00,77.0,72.8,29.98,West,279,1.0,2.0,87,0.00,,CLR,0.00,0.00,VWS V14.01,2013-05-24 06:16:00,
2013-05-24 02:20:00,77.0,73.2,29.98,WNW,300,2.0,4.0,88,0.00,,CLR,0.00,0.00,VWS V14.01,2013-05-24 06:20:00,
2013-05-24 02:21:00,77.0,72.8,29.98,West,275,3.0,3.0,87,0.00,,CLR,0.00,0.00,VWS V14.01,2013-05-24 06:21:00,
2013-05-24 02:25:00,77.0,72.8,29.98,West,273,2.0,2.0,87,0.00,,CLR,0.00,0.00,VWS V14.01,2013-05-24 06:25:00,
2013-05-24 02:26:00,77.0,72.8,29.98,West,272,0.0,2.0,87,0.00,,CLR,0.00,0.00,VWS V14.01,2013-05-24 06:26:00,
2013-05-24 02:30:00,76.9,72.7,29.98,West,272,0.0,0.0,87,0.00,,CLR,0.00,0.00,VWS V14.01,2013-05-24 06:30:00,
2013-05-24 02:31:00,76.9,72.7,29.97,West,272,0.0,2.0,87,0.00,,CLR,0.00,0.00,VWS V14.01,2013-05-24 06:31:00,
2013-05-24 02:35:00,76.8,72.6,29.97,West,272,1.0,2.0,87,0.00,,CLR,0.00,0.00,VWS V14.01,2013-05-24 06:35:00,
2013-05-24 02:36:00,76.8,72.6,29.97,West,273,1.0,2.0,87,0.00,,CLR,0.00,0.00,VWS V14.01,2013-05-24 06:36:00,
2013-05-24 02:40:00,76.7,72.9,29.97,West,273,1.0,2.0,88,0.00,,CLR,0.00,0.00,VWS V14.01,2013-05-24 06:40:00,
2013-05-24 02:41:00,76.7,72.5,29.97,West,273,2.0,2.0,87,0.00,,CLR,0.00,0.00,VWS V14.01,2013-05-24 06:41:00,
2013-05-24 02:45:00,76.6,72.8,29.97,West,273,1.0,2.0,88,0.00,,CLR,0.00,0.00,VWS V14.01,2013-05-24 06:45:00,
2013-05-24 02:46:00,76.6,72.8,29.97,West,273,2.0,3.0,88,0.00,,CLR,0.00,0.00,VWS V14.01,2013-05-24 06:46:00,
2013-05-24 02:50:00,76.6,72.8,29.97,West,273,1.0,3.0,88,0.00,,CLR,0.00,0.00,VWS V14.01,2013-05-24 06:50:00,
2013-05-24 02:51:00,76.5,72.7,29.97,West,273,1.0,2.0,88,0.00,,CLR,0.00,0.00,VWS V14.01,2013-05-24 06:51:00,
2013-05-24 02:55:00,76.5,72.7,29.97,West,273,0.0,0.0,88,0.00,,CLR,0.00,0.00,VWS V14.01,2013-05-24 06:55:00,
2013-05-24 02:56:00,76.5,72.7,29.97,West,281,1.0,3.0,88,0.00,,CLR,0.00,0.00,VWS V14.01,2013-05-24 06:56:00,
2013-05-24 03:00:00,76.4,72.6,29.97,West,281,1.0,2.0,88,0.00,,CLR,0.00,0.00,VWS V14.01,2013-05-24 07:00:00,
2013-05-24 03:01:00,76.4,72.6,29.97,West,281,0.0,1.0,88,0.00,,CLR,0.00,0.00,VWS V14.01,2013-05-24 07:01:00,
2013-05-24 03:05:00,76.4,72.6,29.97,West,281,2.0,2.0,88,0.00,,CLR,0.00,0.00,VWS V14.01,2013-05-24 07:05:00,
2013-05-24 03:06:00,76.3,72.5,29.97,West,278,2.0,3.0,88,0.00,,CLR,0.00,0.00,VWS V14.01,2013-05-24 07:06:00,
2013-05-24 03:10:00,76.3,72.5,29.97,West,278,1.0,2.0,88,0.00,,CLR,0.00,0.00,VWS V14.01,2013-05-24 07:10:00,
2013-05-24 03:11:00,76.2,72.4,29.97,West,278,2.0,2.0,88,0.00,,CLR,0.00,0.00,VWS V14.01,2013-05-24 07:11:00,
2013-05-24 03:15:00,76.2,72.4,29.97,SW,227,2.0,4.0,88,0.00,,CLR,0.00,0.00,VWS V14.01,2013-05-24 07:15:00,
2013-05-24 03:16:00,76.1,72.3,29.97,SW,236,1.0,2.0,88,0.00,,CLR,0.00,0.00,VWS V14.01,2013-05-24 07:16:00,
2013-05-24 03:20:00,76.0,72.2,29.97,WSW,245,3.0,3.0,88,0.00,,CLR,0.00,0.00,VWS V14.01,2013-05-24 07:20:00,
2013-05-24 03:21:00,75.9,72.1,29.97,WSW,245,3.0,3.0,88,0.00,,CLR,0.00,0.00,VWS V14.01,2013-05-24 07:21:00,
2013-05-24 03:25:00,75.8,72.0,29.97,WSW,243,2.0,4.0,88,0.00,,CLR,0.00,0.00,VWS V14.01,2013-05-24 07:25:00,
2013-05-24 03:26:00,75.7,71.9,29.96,WSW,251,3.0,4.0,88,0.00,,CLR,0.00,0.00,VWS V14.01,2013-05-24 07:26:00,
2013-05-24 03:30:00,75.6,72.1,29.96,WSW,249,4.0,5.0,89,0.00,,CLR,0.00,0.00,VWS V14.01,2013-05-24 07:30:00,
2013-05-24 03:31:00,75.6,72.1,29.96,WSW,249,0.0,3.0,89,0.00,,CLR,0.00,0.00,VWS V14.01,2013-05-24 07:31:00,
2013-05-24 03:35:00,75.5,71.7,29.96,WSW,250,0.0,1.0,88,0.00,,CLR,0.00,0.00,VWS V14.01,2013-05-24 07:35:00,
2013-05-24 03:36:00,75.5,72.0,29.96,West,262,1.0,5.0,89,0.00,,CLR,0.00,0.00,VWS V14.01,2013-05-24 07:36:00,
2013-05-24 03:40:00,75.5,72.0,29.97,WSW,257,2.0,5.0,89,0.00,,CLR,0.00,0.00,VWS V14.01,2013-05-24 07:40:00,
2013-05-24 03:41:00,75.5,72.0,29.96,West,262,1.0,4.0,89,0.00,,CLR,0.00,0.00,VWS V14.01,2013-05-24 07:41:00,
2013-05-24 03:45:00,75.4,71.9,29.97,West,262,2.0,2.0,89,0.00,,CLR,0.00,0.00,VWS V14.01,2013-05-24 07:45:00,
2013-05-24 03:46:00,75.4,71.9,29.96,SW,225,1.0,4.0,89,0.00,,CLR,0.00,0.00,VWS V14.01,2013-05-24 07:46:00,
2013-05-24 03:50:00,75.4,71.9,29.96,WSW,241,1.0,3.0,89,0.00,,CLR,0.00,0.00,VWS V14.01,2013-05-24 07:50:00,
2013-05-24 03:51:00,75.4,71.9,29.97,WSW,240,1.0,4.0,89,0.00,,CLR,0.00,0.00,VWS V14.01,2013-05-24 07:51:00,
2013-05-24 03:55:00,75.4,71.9,29.97,WSW,240,0.0,2.0,89,0.00,,CLR,0.00,0.00,VWS V14.01,2013-05-24 07:55:00,
2013-05-24 03:56:00,75.4,71.9,29.97,WSW,240,0.0,0.0,89,0.00,,CLR,0.00,0.00,VWS V14.01,2013-05-24 07:56:00,
2013-05-24 04:00:00,75.3,71.8,29.97,WSW,240,0.0,1.0,89,0.00,,CLR,0.00,0.00,VWS V14.01,2013-05-24 08:00:00,
2013-05-24 04:01:00,75.3,71.8,29.97,WSW,240,2.0,3.0,89,0.00,,CLR,0.00,0.00,VWS V14.01,2013-05-24 08:01:00,
2013-05-24 04:05:00,75.3,71.8,29.97,WSW,240,1.0,1.0,89,0.00,,CLR,0.00,0.00,VWS V14.01,2013-05-24 08:05:00,
2013-05-24 04:06:00,75.3,71.8,29.97,WSW,240,1.0,2.0,89,0.00,,CLR,0.00,0.00,VWS V14.01,2013-05-24 08:06:00,
2013-05-24 04:10:00,75.2,71.7,29.97,WSW,240,0.0,2.0,89,0.00,,CLR,0.00,0.00,VWS V14.01,2013-05-24 08:10:00,
2013-05-24 04:11:00,75.2,71.7,29.97,WSW,240,0.0,0.0,89,0.00,,CLR,0.00,0.00,VWS V14.01,2013-05-24 08:11:00,
2013-05-24 04:15:00,75.1,71.6,29.98,WSW,240,0.0,0.0,89,0.00,,CLR,0.00,0.00,VWS V14.01,2013-05-24 08:15:00,
2013-05-24 04:16:00,75.1,72.0,29.98,WSW,240,0.0,0.0,90,0.00,,CLR,0.00,0.00,VWS V14.01,2013-05-24 08:16:00,
2013-05-24 04:20:00,75.1,72.0,29.98,WSW,240,0.0,0.0,90,0.00,,CLR,0.00,0.00,VWS V14.01,2013-05-24 08:20:00,
2013-05-24 04:21:00,75.0,71.9,29.98,WSW,240,0.0,0.0,90,0.00,,CLR,0.00,0.00,VWS V14.01,2013-05-24 08:21:00,
2013-05-24 04:25:00,75.0,71.9,29.98,WSW,240,0.0,1.0,90,0.00,,CLR,0.00,0.00,VWS V14.01,2013-05-24 08:25:00,
2013-05-24 04:26:00,75.0,71.9,29.97,WSW,240,1.0,1.0,90,0.00,,CLR,0.00,0.00,VWS V14.01,2013-05-24 08:26:00,
2013-05-24 04:30:00,74.9,71.8,29.97,WSW,241,2.0,2.0,90,0.00,,CLR,0.00,0.00,VWS V14.01,2013-05-24 08:30:00,
2013-05-24 04:31:00,75.0,71.9,29.97,West,261,2.0,3.0,90,0.00,,CLR,0.00,0.00,VWS V14.01,2013-05-24 08:31:00,
2013-05-24 04:35:00,75.0,71.9,29.97,West,275,1.0,2.0,90,0.00,,CLR,0.00,0.00,VWS V14.01,2013-05-24 08:35:00,
2013-05-24 04:36:00,75.0,71.9,29.98,WNW,299,2.0,5.0,90,0.00,,CLR,0.00,0.00,VWS V14.01,2013-05-24 08:36:00,
2013-05-24 04:40:00,75.0,71.9,29.98,WNW,286,2.0,3.0,90,0.00,,CLR,0.00,0.00,VWS V14.01,2013-05-24 08:40:00,
2013-05-24 04:41:00,75.0,71.9,29.98,WNW,286,1.0,2.0,90,0.00,,CLR,0.00,0.00,VWS V14.01,2013-05-24 08:41:00,
2013-05-24 04:45:00,75.0,71.9,29.98,WNW,286,1.0,3.0,90,0.00,,CLR,0.00,0.00,VWS V14.01,2013-05-24 08:45:00,
2013-05-24 04:46:00,75.1,72.0,29.98,WNW,286,1.0,2.0,90,0.00,,CLR,0.00,0.00,VWS V14.01,2013-05-24 08:46:00,
2013-05-24 04:50:00,75.1,72.0,29.98,West,271,1.0,4.0,90,0.00,,CLR,0.00,0.00,VWS V14.01,2013-05-24 08:50:00,
2013-05-24 04:51:00,75.1,72.0,29.98,WNW,282,1.0,3.0,90,0.00,,CLR,0.00,0.00,VWS V14.01,2013-05-24 08:51:00,
2013-05-24 04:55:00,75.1,72.3,29.98,West,281,2.0,5.0,91,0.00,,CLR,0.00,0.00,VWS V14.01,2013-05-24 08:55:00,
2013-05-24 04:56:00,75.1,72.0,29.98,West,281,0.0,2.0,90,0.00,,CLR,0.00,0.00,VWS V14.01,2013-05-24 08:56:00,
2013-05-24 05:00:00,75.1,72.0,29.98,WNW,294,0.0,3.0,90,0.00,,CLR,0.00,0.00,VWS V14.01,2013-05-24 09:00:00,
2013-05-24 05:01:00,75.1,72.0,29.98,WNW,297,2.0,3.0,90,0.00,,CLR,0.00,0.00,VWS V14.01,2013-05-24 09:01:00,
2013-05-24 05:05:00,75.1,72.0,29.98,WNW,299,0.0,1.0,90,0.00,,CLR,0.00,0.00,VWS V14.01,2013-05-24 09:05:00,
2013-05-24 05:06:00,75.1,72.0,29.98,WNW,299,0.0,0.0,90,0.00,,CLR,0.00,0.00,VWS V14.01,2013-05-24 09:06:00,
2013-05-24 05:10:00,75.1,72.0,29.98,WNW,298,1.0,3.0,90,0.00,,CLR,0.00,0.00,VWS V14.01,2013-05-24 09:10:00,
2013-05-24 05:11:00,75.1,72.0,29.98,WNW,289,2.0,4.0,90,0.00,,CLR,0.00,0.00,VWS V14.01,2013-05-24 09:11:00,
2013-05-24 05:15:00,75.1,72.3,29.98,West,281,2.0,3.0,91,0.00,,CLR,0.00,0.00,VWS V14.01,2013-05-24 09:15:00,
2013-05-24 05:16:00,75.0,71.9,29.98,West,281,1.0,4.0,90,0.00,,CLR,0.00,0.00,VWS V14.01,2013-05-24 09:16:00,
2013-05-24 05:20:00,75.0,72.2,29.98,West,281,0.0,2.0,91,0.00,,CLR,0.00,0.00,VWS V14.01,2013-05-24 09:20:00,
2013-05-24 05:21:00,75.0,71.9,29.98,West,267,2.0,4.0,90,0.00,,CLR,0.00,0.00,VWS V14.01,2013-05-24 09:21:00,
2013-05-24 05:25:00,75.0,72.2,29.98,West,267,2.0,3.0,91,0.00,,CLR,0.00,0.00,VWS V14.01,2013-05-24 09:25:00,
2013-05-24 05:26:00,75.0,72.2,29.98,West,267,0.0,1.0,91,0.00,,CLR,0.00,0.00,VWS V14.01,2013-05-24 09:26:00,
2013-05-24 05:30:00,74.9,72.1,29.98,West,267,0.0,0.0,91,0.00,,CLR,0.00,0.00,VWS V14.01,2013-05-24 09:30:00,
2013-05-24 05:31:00,74.9,72.1,29.98,West,267,0.0,0.0,91,0.00,,CLR,0.00,0.00,VWS V14.01,2013-05-24 09:31:00,
2013-05-24 05:35:00,74.9,72.1,29.98,West,267,0.0,1.0,91,0.00,,CLR,0.00,0.00,VWS V14.01,2013-05-24 09:35:00,
2013-05-24 05:36:00,74.8,72.0,29.98,West,267,1.0,2.0,91,0.00,,CLR,0.00,0.00,VWS V14.01,2013-05-24 09:36:00,
2013-05-24 05:40:00,74.8,72.0,29.98,West,267,1.0,2.0,91,0.00,,CLR,0.00,0.00,VWS V14.01,2013-05-24 09:40:00,
2013-05-24 05:41:00,74.7,71.9,29.98,West,267,0.0,2.0,91,0.00,,CLR,0.00,0.00,VWS V14.01,2013-05-24 09:41:00,
2013-05-24 05:45:00,74.7,71.9,29.98,West,267,0.0,1.0,91,0.00,,CLR,0.00,0.00,VWS V14.01,2013-05-24 09:45:00,
2013-05-24 05:46:00,74.7,71.9,29.99,West,267,1.0,2.0,91,0.00,,CLR,0.00,0.00,VWS V14.01,2013-05-24 09:46:00,
2013-05-24 05:50:00,74.7,71.9,29.99,West,281,1.0,3.0,91,0.00,,CLR,0.00,0.00,VWS V14.01,2013-05-24 09:50:00,
2013-05-24 05:51:00,74.7,71.9,29.99,WNW,285,2.0,2.0,91,0.00,,CLR,0.00,0.00,VWS V14.01,2013-05-24 09:51:00,
2013-05-24 05:55:00,74.7,71.9,29.99,WNW,286,0.0,2.0,91,0.00,,CLR,0.00,0.00,VWS V14.01,2013-05-24 09:55:00,
2013-05-24 05:56:00,74.7,71.9,29.99,WNW,286,0.0,0.0,91,0.00,,CLR,0.00,0.00,VWS V14.01,2013-05-24 09:56:00,
2013-05-24 06:00:00,74.6,71.8,30.00,WNW,292,1.0,3.0,91,0.00,,CLR,0.00,0.00,VWS V14.01,2013-05-24 10:00:00,
2013-05-24 06:01:00,74.7,71.9,30.00,WNW,290,0.0,3.0,91,0.00,,CLR,0.00,0.00,VWS V14.01,2013-05-24 10:01:00,
2013-05-24 06:05:00,74.6,71.8,30.00,WNW,290,0.0,1.0,91,0.00,,CLR,0.00,0.00,VWS V14.01,2013-05-24 10:05:00,
2013-05-24 06:06:00,74.6,71.8,30.00,WNW,290,1.0,3.0,91,0.00,,CLR,0.00,0.00,VWS V14.01,2013-05-24 10:06:00,
2013-05-24 06:10:00,74.6,71.8,30.00,WNW,290,1.0,3.0,91,0.00,,CLR,0.00,0.00,VWS V14.01,2013-05-24 10:10:00,
2013-05-24 06:11:00,74.6,71.8,30.00,WNW,290,0.0,1.0,91,0.00,,CLR,0.00,0.00,VWS V14.01,2013-05-24 10:11:00,
2013-05-24 06:15:00,74.5,71.7,30.00,WNW,290,1.0,2.0,91,0.00,,CLR,0.00,0.00,VWS V14.01,2013-05-24 10:15:00,
2013-05-24 06:16:00,74.5,71.7,30.00,WNW,286,2.0,4.0,91,0.00,,CLR,0.00,0.00,VWS V14.01,2013-05-24 10:16:00,
2013-05-24 06:20:00,74.5,71.7,30.00,NW,304,2.0,4.0,91,0.00,,CLR,0.00,0.00,VWS V14.01,2013-05-24 10:20:00,
2013-05-24 06:21:00,74.5,71.7,30.00,WNW,296,3.0,3.0,91,0.00,,CLR,0.00,0.00,VWS V14.01,2013-05-24 10:21:00,
2013-05-24 06:25:00,74.5,71.7,30.00,WNW,296,0.0,1.0,91,0.00,,CLR,0.00,0.00,VWS V14.01,2013-05-24 10:25:00,
2013-05-24 06:26:00,74.4,71.6,30.00,WNW,296,1.0,2.0,91,0.00,,CLR,0.00,0.00,VWS V14.01,2013-05-24 10:26:00,
2013-05-24 06:30:00,74.4,71.6,30.00,WNW,296,0.0,2.0,91,0.00,,CLR,0.00,0.00,VWS V14.01,2013-05-24 10:30:00,
2013-05-24 06:31:00,74.4,71.6,30.00,WNW,296,0.0,0.0,91,0.00,,CLR,0.00,0.00,VWS V14.01,2013-05-24 10:31:00,
2013-05-24 06:35:00,74.4,71.6,30.00,WNW,296,0.0,0.0,91,0.00,,CLR,0.00,0.00,VWS V14.01,2013-05-24 10:35:00,
2013-05-24 06:36:00,74.4,71.6,30.00,WNW,296,0.0,1.0,91,0.00,,CLR,0.00,5.00,VWS V14.01,2013-05-24 10:36:00,
2013-05-24 06:40:00,74.4,71.6,30.00,WNW,296,2.0,2.0,91,0.00,,CLR,0.00,5.00,VWS V14.01,2013-05-24 10:40:00,
2013-05-24 06:41:00,74.4,71.6,30.01,WNW,296,1.0,1.0,91,0.00,,CLR,0.00,5.00,VWS V14.01,2013-05-24 10:41:00,
2013-05-24 06:45:00,74.4,71.6,30.01,WNW,296,0.0,3.0,91,0.00,,CLR,0.00,7.00,VWS V14.01,2013-05-24 10:45:00,
2013-05-24 06:46:00,74.4,71.6,30.01,WNW,296,1.0,2.0,91,0.00,,CLR,0.00,7.00,VWS V14.01,2013-05-24 10:46:00,
2013-05-24 06:50:00,74.4,71.6,30.01,West,279,4.0,4.0,91,0.00,,CLR,0.00,9.00,VWS V14.01,2013-05-24 10:50:00,
2013-05-24 06:51:00,74.4,71.6,30.01,West,279,1.0,3.0,91,0.00,,CLR,0.00,12.00,VWS V14.01,2013-05-24 10:51:00,
2013-05-24 06:55:00,74.4,71.6,30.02,West,279,2.0,3.0,91,0.00,,CLR,0.00,16.00,VWS V14.01,2013-05-24 10:55:00,
2013-05-24 06:56:00,74.4,71.6,30.02,West,279,1.0,2.0,91,0.00,,CLR,0.00,19.00,VWS V14.01,2013-05-24 10:56:00,
2013-05-24 07:00:00,74.4,71.6,30.02,West,279,1.0,3.0,91,0.00,,CLR,0.00,21.00,VWS V14.01,2013-05-24 11:00:00,
2013-05-24 07:01:00,74.4,71.6,30.02,West,279,2.0,3.0,91,0.00,,CLR,0.00,25.00,VWS V14.01,2013-05-24 11:01:00,
2013-05-24 07:05:00,74.5,71.7,30.02,West,279,1.0,3.0,91,0.00,,CLR,0.00,30.00,VWS V14.01,2013-05-24 11:05:00,
2013-05-24 07:06:00,74.6,71.5,30.02,West,279,0.0,2.0,90,0.00,,CLR,0.00,33.00,VWS V14.01,2013-05-24 11:06:00,
2013-05-24 07:10:00,74.6,71.5,30.02,WNW,298,0.0,4.0,90,0.00,,CLR,0.00,39.00,VWS V14.01,2013-05-24 11:10:00,
2013-05-24 07:11:00,74.7,71.6,30.02,WNW,298,0.0,2.0,90,0.00,,CLR,0.00,40.00,VWS V14.01,2013-05-24 11:11:00,
2013-05-24 07:15:00,74.7,71.6,30.02,WNW,292,2.0,3.0,90,0.00,,CLR,0.00,47.00,VWS V14.01,2013-05-24 11:15:00,
2013-05-24 07:16:00,74.7,71.6,30.02,WNW,292,0.0,2.0,90,0.00,,CLR,0.00,49.00,VWS V14.01,2013-05-24 11:16:00,
2013-05-24 07:20:00,74.8,71.7,30.02,WNW,292,1.0,2.0,90,0.00,,CLR,0.00,56.00,VWS V14.01,2013-05-24 11:20:00,
2013-05-24 07:21:00,74.8,71.7,30.03,WNW,291,3.0,3.0,90,0.00,,CLR,0.00,60.00,VWS V14.01,2013-05-24 11:21:00,
2013-05-24 07:25:00,74.9,71.8,30.03,WNW,291,1.0,2.0,90,0.00,,CLR,0.00,65.00,VWS V14.01,2013-05-24 11:25:00,
2013-05-24 07:26:00,75.0,71.9,30.03,WNW,291,2.0,2.0,90,0.00,,CLR,0.00,69.00,VWS V14.01,2013-05-24 11:26:00,
2013-05-24 07:30:00,75.1,71.6,30.03,WNW,284,2.0,4.0,89,0.00,,CLR,0.00,74.00,VWS V14.01,2013-05-24 11:30:00,
2013-05-24 07:31:00,75.2,71.4,30.03,West,279,3.0,3.0,88,0.00,,CLR,0.00,81.00,VWS V14.01,2013-05-24 11:31:00,
2013-05-24 07:35:00,75.3,71.5,30.03,West,278,1.0,2.0,88,0.00,,CLR,0.00,54.00,VWS V14.01,2013-05-24 11:35:00,
2013-05-24 07:36:00,75.4,71.6,30.03,West,278,1.0,3.0,88,0.00,,CLR,0.00,90.00,VWS V14.01,2013-05-24 11:36:00,
2013-05-24 07:40:00,75.6,71.8,30.03,West,261,3.0,4.0,88,0.00,,CLR,0.00,62.00,VWS V14.01,2013-05-24 11:40:00,
2013-05-24 07:41:00,75.6,71.5,30.03,West,261,1.0,3.0,87,0.00,,CLR,0.00,121.00,VWS V14.01,2013-05-24 11:41:00,
2013-05-24 07:45:00,75.8,71.7,30.03,West,262,1.0,3.0,87,0.00,,CLR,0.00,125.00,VWS V14.01,2013-05-24 11:45:00,
2013-05-24 07:46:00,76.0,71.5,30.03,West,262,0.0,2.0,86,0.00,,CLR,0.00,141.00,VWS V14.01,2013-05-24 11:46:00,
2013-05-24 07:50:00,76.2,71.4,30.03,West,281,1.0,4.0,85,0.00,,CLR,0.00,155.00,VWS V14.01,2013-05-24 11:50:00,
2013-05-24 07:51:00,76.3,71.5,30.03,West,279,3.0,5.0,85,0.00,,CLR,0.00,162.00,VWS V14.01,2013-05-24 11:51:00,
2013-05-24 07:55:00,76.5,71.7,30.03,West,263,2.0,4.0,85,0.00,,CLR,0.00,169.00,VWS V14.01,2013-05-24 11:55:00,
2013-05-24 07:56:00,76.7,71.5,30.03,West,265,2.0,3.0,84,0.00,,CLR,0.00,176.00,VWS V14.01,2013-05-24 11:56:00,
2013-05-24 08:00:00,76.9,71.7,30.03,WNW,291,2.0,5.0,84,0.00,,CLR,0.00,192.00,VWS V14.01,2013-05-24 12:00:00,
2013-05-24 08:01:00,77.1,71.9,30.03,WNW,291,2.0,4.0,84,0.00,,CLR,0.00,199.00,VWS V14.01,2013-05-24 12:01:00,
2013-05-24 08:05:00,77.3,71.7,30.03,West,279,3.0,5.0,83,0.00,,CLR,0.00,207.00,VWS V14.01,2013-05-24 12:05:00,
2013-05-24 08:06:00,77.4,71.5,30.03,West,273,3.0,4.0,82,0.00,,CLR,0.00,216.00,VWS V14.01,2013-05-24 12:06:00,
2013-05-24 08:10:00,77.5,71.9,30.03,West,268,1.0,4.0,83,0.00,,CLR,0.00,227.00,VWS V14.01,2013-05-24 12:10:00,
2013-05-24 08:11:00,77.7,72.1,30.03,WNW,288,1.0,3.0,83,0.00,,CLR,0.00,232.00,VWS V14.01,2013-05-24 12:11:00,
2013-05-24 08:15:00,77.9,72.0,30.03,WNW,298,3.0,6.0,82,0.00,,CLR,0.00,244.00,VWS V14.01,2013-05-24 12:15:00,
2013-05-24 08:16:00,78.0,72.1,30.03,WNW,302,2.0,5.0,82,0.00,,CLR,0.00,251.00,VWS V14.01,2013-05-24 12:16:00,
2013-05-24 08:20:00,78.2,72.3,30.03,WNW,298,3.0,3.0,82,0.00,,CLR,0.00,267.00,VWS V14.01,2013-05-24 12:20:00,
2013-05-24 08:21:00,78.3,72.0,30.03,NW,306,3.0,5.0,81,0.00,,CLR,0.00,272.00,VWS V14.01,2013-05-24 12:21:00,
2013-05-24 08:25:00,78.5,72.2,30.03,NW,319,2.0,4.0,81,0.00,,CLR,0.00,285.00,VWS V14.01,2013-05-24 12:25:00,
2013-05-24 08:26:00,78.6,72.3,30.03,NW,305,2.0,4.0,81,0.00,,CLR,0.00,292.00,VWS V14.01,2013-05-24 12:26:00,
2013-05-24 08:30:00,78.8,72.5,30.03,NW,321,4.0,4.0,81,0.00,,CLR,0.00,302.00,VWS V14.01,2013-05-24 12:30:00,
2013-05-24 08:31:00,78.9,72.2,30.03,WNW,295,2.0,4.0,80,0.00,,CLR,0.00,308.00,VWS V14.01,2013-05-24 12:31:00,
2013-05-24 08:35:00,79.2,72.5,30.03,NNW,333,1.0,5.0,80,0.00,,CLR,0.00,316.00,VWS V14.01,2013-05-24 12:35:00,
2013-05-24 08:36:00,79.4,72.3,30.04,NNW,329,3.0,4.0,79,0.00,,CLR,0.00,325.00,VWS V14.01,2013-05-24 12:36:00,
2013-05-24 08:40:00,79.6,72.5,30.04,NW,313,2.0,4.0,79,0.00,,CLR,0.00,334.00,VWS V14.01,2013-05-24 12:40:00,
2013-05-24 08:41:00,79.8,73.1,30.04,NW,306,3.0,5.0,80,0.00,,CLR,0.00,345.00,VWS V14.01,2013-05-24 12:41:00,
2013-05-24 08:45:00,80.1,73.0,30.04,NNW,331,4.0,4.0,79,0.00,,CLR,0.00,357.00,VWS V14.01,2013-05-24 12:45:00,
2013-05-24 08:46:00,80.2,72.7,30.04,NW,313,2.0,4.0,78,0.00,,CLR,0.00,362.00,VWS V14.01,2013-05-24 12:46:00,
2013-05-24 08:50:00,80.3,72.8,30.04,NW,325,5.0,6.0,78,0.00,,CLR,0.00,373.00,VWS V14.01,2013-05-24 12:50:00,
2013-05-24 08:51:00,80.5,73.0,30.04,NW,321,1.0,3.0,78,0.00,,CLR,0.00,380.00,VWS V14.01,2013-05-24 12:51:00,
2013-05-24 08:55:00,80.8,73.3,30.04,NNW,336,1.0,5.0,78,0.00,,CLR,0.00,390.00,VWS V14.01,2013-05-24 12:55:00,
2013-05-24 08:56:00,80.9,73.0,30.04,WNW,294,2.0,5.0,77,0.00,,CLR,0.00,397.00,VWS V14.01,2013-05-24 12:56:00,
2013-05-24 09:00:00,81.1,73.2,30.04,NNW,336,4.0,5.0,77,0.00,,CLR,0.00,408.00,VWS V14.01,2013-05-24 13:00:00,
2013-05-24 09:01:00,81.2,73.3,30.04,WNW,290,5.0,6.0,77,0.00,,CLR,0.00,415.00,VWS V14.01,2013-05-24 13:01:00,
2013-05-24 09:05:00,81.4,73.5,30.04,NW,310,2.0,4.0,77,0.00,,CLR,0.00,427.00,VWS V14.01,2013-05-24 13:05:00,
2013-05-24 09:06:00,81.5,73.6,30.04,WNW,298,6.0,6.0,77,0.00,,CLR,0.00,432.00,VWS V14.01,2013-05-24 13:06:00,
2013-05-24 09:10:00,81.6,73.3,30.04,NW,317,3.0,5.0,76,0.00,,CLR,0.00,441.00,VWS V14.01,2013-05-24 13:10:00,
2013-05-24 09:11:00,81.8,73.5,30.04,NNW,343,5.0,6.0,76,0.00,,CLR,0.00,452.00,VWS V14.01,2013-05-24 13:11:00,
2013-05-24 09:15:00,82.1,73.0,30.04,NW,314,6.0,6.0,74,0.00,,CLR,0.00,461.00,VWS V14.01,2013-05-24 13:15:00,
2013-05-24 09:16:00,82.1,73.0,30.04,NW,315,3.0,7.0,74,0.00,,CLR,0.00,468.00,VWS V14.01,2013-05-24 13:16:00,
2013-05-24 09:20:00,82.4,73.3,30.04,NNW,338,2.0,5.0,74,0.00,,CLR,0.00,478.00,VWS V14.01,2013-05-24 13:20:00,
2013-05-24 09:21:00,82.5,73.0,30.04,NW,309,5.0,6.0,73,0.00,,CLR,0.00,483.00,VWS V14.01,2013-05-24 13:21:00,
2013-05-24 09:25:00,82.9,73.8,30.04,NNW,346,5.0,6.0,74,0.00,,CLR,0.00,496.00,VWS V14.01,2013-05-24 13:25:00,
2013-05-24 09:26:00,83.1,74.0,30.04,NNW,344,4.0,4.0,74,0.00,,CLR,0.00,503.00,VWS V14.01,2013-05-24 13:26:00,
2013-05-24 09:30:00,83.6,74.0,30.04,NNW,346,3.0,7.0,73,0.00,,CLR,0.00,517.00,VWS V14.01,2013-05-24 13:30:00,
2013-05-24 09:31:00,83.7,73.3,30.04,NW,319,4.0,8.0,71,0.00,,CLR,0.00,522.00,VWS V14.01,2013-05-24 13:31:00,
2013-05-24 09:35:00,83.8,73.0,30.04,NW,324,4.0,6.0,70,0.00,,CLR,0.00,531.00,VWS V14.01,2013-05-24 13:35:00,
2013-05-24 09:36:00,83.9,72.7,30.04,North,349,1.0,8.0,69,0.00,,CLR,0.00,536.00,VWS V14.01,2013-05-24 13:36:00,
2013-05-24 09:40:00,83.9,72.7,30.05,NW,321,5.0,9.0,69,0.00,,CLR,0.00,543.00,VWS V14.01,2013-05-24 13:40:00,
2013-05-24 09:41:00,84.0,73.6,30.05,North,355,3.0,6.0,71,0.00,,CLR,0.00,552.00,VWS V14.01,2013-05-24 13:41:00,
2013-05-24 09:45:00,84.2,72.5,30.05,NW,310,4.0,7.0,68,0.00,,CLR,0.00,561.00,VWS V14.01,2013-05-24 13:45:00,
2013-05-24 09:46:00,84.3,72.2,30.05,NW,319,3.0,5.0,67,0.00,,CLR,0.00,568.00,VWS V14.01,2013-05-24 13:46:00,
2013-05-24 09:50:00,84.6,72.4,30.05,NW,315,3.0,7.0,67,0.00,,CLR,0.00,582.00,VWS V14.01,2013-05-24 13:50:00,
2013-05-24 09:55:00,85.1,73.4,30.05,NW,316,4.0,6.0,68,0.00,,CLR,0.00,599.00,VWS V14.01,2013-05-24 13:55:00,
2013-05-24 10:00:00,85.3,71.8,30.05,WNW,301,5.0,8.0,64,0.00,,CLR,0.00,615.00,VWS V14.01,2013-05-24 14:00:00,
2013-05-24 10:05:00,85.6,72.5,30.05,NNW,331,3.0,8.0,65,0.00,,CLR,0.00,629.00,VWS V14.01,2013-05-24 14:05:00,
2013-05-24 10:10:00,85.9,73.7,30.05,NNW,327,2.0,8.0,67,0.00,,CLR,0.00,643.00,VWS V14.01,2013-05-24 14:10:00,
2013-05-24 10:15:00,86.2,74.0,30.05,NW,325,3.0,4.0,67,0.00,,CLR,0.00,663.00,VWS V14.01,2013-05-24 14:15:00,
2013-05-24 10:20:00,86.7,73.5,30.05,NW,318,5.0,7.0,65,0.00,,CLR,0.00,677.00,VWS V14.01,2013-05-24 14:20:00,
2013-05-24 10:25:00,87.0,72.9,30.05,NW,311,4.0,6.0,63,0.00,,CLR,0.00,693.00,VWS V14.01,2013-05-24 14:25:00,
2013-05-24 10:30:00,87.4,72.8,30.05,NNW,344,3.0,6.0,62,0.00,,CLR,0.00,705.00,VWS V14.01,2013-05-24 14:30:00,
2013-05-24 10:35:00,87.7,72.6,30.05,WNW,286,2.0,3.0,61,0.00,,CLR,0.00,721.00,VWS V14.01,2013-05-24 14:35:00,
2013-05-24 10:40:00,88.1,73.0,30.05,NW,315,6.0,8.0,61,0.00,,CLR,0.00,737.00,VWS V14.01,2013-05-24 14:40:00,
2013-05-24 10:45:00,88.5,73.3,30.05,WNW,294,4.0,7.0,61,0.00,,CLR,0.00,749.00,VWS V14.01,2013-05-24 14:45:00,
2013-05-24 10:50:00,88.9,72.7,30.05,NNW,342,4.0,9.0,59,0.00,,CLR,0.00,763.00,VWS V14.01,2013-05-24 14:50:00,
2013-05-24 10:55:00,89.1,74.4,30.05,West,280,3.0,4.0,62,0.00,,CLR,0.00,773.00,VWS V14.01,2013-05-24 14:55:00,
2013-05-24 11:00:00,89.4,74.2,30.05,West,267,3.0,6.0,61,0.00,,CLR,0.00,786.00,VWS V14.01,2013-05-24 15:00:00,
2013-05-24 11:05:00,89.2,73.5,30.05,NW,325,4.0,7.0,60,0.00,,CLR,0.00,800.00,VWS V14.01,2013-05-24 15:05:00,
2013-05-24 11:10:00,89.4,74.2,30.05,NNW,342,2.0,2.0,61,0.00,,CLR,0.00,812.00,VWS V14.01,2013-05-24 15:10:00,
2013-05-24 11:15:00,90.0,74.3,30.05,WNW,294,4.0,4.0,60,0.00,,CLR,0.00,821.00,VWS V14.01,2013-05-24 15:15:00,
2013-05-24 11:20:00,90.6,73.8,30.05,NW,306,5.0,10.0,58,0.00,,CLR,0.00,842.00,VWS V14.01,2013-05-24 15:20:00,
2013-05-24 11:25:00,90.7,73.4,30.05,NW,321,4.0,8.0,57,0.00,,CLR,0.00,805.00,VWS V14.01,2013-05-24 15:25:00,
2013-05-24 11:30:00,90.9,73.6,30.05,NNW,336,6.0,8.0,57,0.00,,CLR,0.00,874.00,VWS V14.01,2013-05-24 15:30:00,
2013-05-24 11:35:00,90.5,73.7,30.05,NNW,336,2.0,3.0,58,0.00,,CLR,0.00,865.00,VWS V14.01,2013-05-24 15:35:00,
2013-05-24 11:40:00,90.9,74.1,30.05,NNW,331,7.0,7.0,58,0.00,,CLR,0.00,882.00,VWS V14.01,2013-05-24 15:40:00,
2013-05-24 11:45:00,90.9,73.0,30.06,North,5,5.0,6.0,56,0.00,,CLR,0.00,895.00,VWS V14.01,2013-05-24 15:45:00,
2013-05-24 11:50:00,90.9,74.6,30.05,North,9,2.0,8.0,59,0.00,,CLR,0.00,919.00,VWS V14.01,2013-05-24 15:50:00,
2013-05-24 11:55:00,90.9,73.6,30.05,NE,34,3.0,4.0,57,0.00,,CLR,0.00,918.00,VWS V14.01,2013-05-24 15:55:00,
2013-05-24 12:00:00,90.9,74.6,30.05,North,355,2.0,4.0,59,0.00,,CLR,0.00,956.00,VWS V14.01,2013-05-24 16:00:00,
2013-05-24 12:05:00,91.3,74.5,30.05,NNW,344,6.0,8.0,58,0.00,,CLR,0.00,962.00,VWS V14.01,2013-05-24 16:05:00,
2013-05-24 12:10:00,91.7,73.8,30.05,NW,321,5.0,5.0,56,0.00,,CLR,0.00,993.00,VWS V14.01,2013-05-24 16:10:00,
2013-05-24 12:15:00,92.6,75.7,30.05,North,355,5.0,8.0,58,0.00,,CLR,0.00,1018.00,VWS V14.01,2013-05-24 16:15:00,
2013-05-24 12:20:00,92.6,73.0,30.05,North,355,3.0,6.0,53,0.00,,CLR,0.00,1027.00,VWS V14.01,2013-05-24 16:20:00,
2013-05-24 12:25:00,92.5,72.9,30.05,NNW,331,5.0,6.0,53,0.00,,CLR,0.00,932.00,VWS V14.01,2013-05-24 16:25:00,
2013-05-24 12:30:00,92.2,72.1,30.05,NW,315,3.0,6.0,52,0.00,,CLR,0.00,1049.00,VWS V14.01,2013-05-24 16:30:00,
2013-05-24 12:35:00,91.4,73.5,30.05,North,350,4.0,6.0,56,0.00,,CLR,0.00,1049.00,VWS V14.01,2013-05-24 16:35:00,
2013-05-24 12:40:00,92.0,72.4,30.04,NE,38,2.0,4.0,53,0.00,,CLR,0.00,1090.00,VWS V14.01,2013-05-24 16:40:00,
2013-05-24 12:45:00,91.6,72.6,30.04,NNW,337,5.0,9.0,54,0.00,,CLR,0.00,246.00,VWS V14.01,2013-05-24 16:45:00,
2013-05-24 12:50:00,91.9,70.6,30.04,NW,314,4.0,11.0,50,0.00,,CLR,0.00,1088.00,VWS V14.01,2013-05-24 16:50:00,
2013-05-24 12:55:00,93.2,71.2,30.04,WNW,300,5.0,8.0,49,0.00,,CLR,0.00,1060.00,VWS V14.01,2013-05-24 16:55:00,
2013-05-24 13:00:00,93.9,70.6,30.04,NNW,333,6.0,10.0,47,0.00,,CLR,0.00,1056.00,VWS V14.01,2013-05-24 17:00:00,
2013-05-24 13:05:00,93.8,69.9,30.04,NNW,337,5.0,9.0,46,0.00,,CLR,0.00,1053.00,VWS V14.01,2013-05-24 17:05:00,
2013-05-24 13:10:00,94.1,70.8,30.03,NW,311,5.0,8.0,47,0.00,,CLR,0.00,1053.00,VWS V14.01,2013-05-24 17:10:00,
2013-05-24 13:15:00,93.8,69.9,30.03,NW,312,4.0,4.0,46,0.00,,CLR,0.00,1055.00,VWS V14.01,2013-05-24 17:15:00,
2013-05-24 13:20:00,93.8,71.8,30.03,WNW,301,1.0,6.0,49,0.00,,CLR,0.00,1083.00,VWS V14.01,2013-05-24 17:20:00,
2013-05-24 13:25:00,94.2,72.1,30.03,North,351,2.0,6.0,49,0.00,,CLR,0.00,1137.00,VWS V14.01,2013-05-24 17:25:00,
2013-05-24 13:30:00,93.3,70.1,30.03,NE,35,1.0,2.0,47,0.00,,CLR,0.00,199.00,VWS V14.01,2013-05-24 17:30:00,
2013-05-24 13:35:00,91.4,73.5,30.03,East,96,3.0,7.0,56,0.00,,CLR,0.00,267.00,VWS V14.01,2013-05-24 17:35:00,
2013-05-24 13:40:00,90.1,74.3,30.03,ENE,73,2.0,7.0,60,0.00,,CLR,0.00,336.00,VWS V14.01,2013-05-24 17:40:00,
2013-05-24 13:45:00,89.6,73.9,30.03,SE,134,2.0,7.0,60,0.00,,CLR,0.00,1121.00,VWS V14.01,2013-05-24 17:45:00,
2013-05-24 13:50:00,89.3,73.6,30.03,SE,132,4.0,8.0,60,0.00,,CLR,0.00,237.00,VWS V14.01,2013-05-24 17:50:00,
2013-05-24 13:55:00,88.7,74.0,30.03,East,88,6.0,6.0,62,0.00,,CLR,0.00,281.00,VWS V14.01,2013-05-24 17:55:00,
2013-05-24 14:00:00,88.8,75.1,30.03,NE,53,3.0,5.0,64,0.00,,FEW043,0.00,429.00,VWS V14.01,2013-05-24 18:00:00,
2013-05-24 14:05:00,88.4,73.7,30.03,ESE,122,5.0,7.0,62,0.00,,FEW043,0.00,294.00,VWS V14.01,2013-05-24 18:05:00,
2013-05-24 14:10:00,89.3,74.6,30.02,SSE,157,4.0,7.0,62,0.00,,FEW043,0.00,1069.00,VWS V14.01,2013-05-24 18:10:00,
2013-05-24 14:15:00,90.4,76.1,30.02,ENE,73,5.0,7.0,63,0.00,,FEW043,0.00,1032.00,VWS V14.01,2013-05-24 18:15:00,
2013-05-24 14:20:00,90.7,75.4,30.02,SSE,167,5.0,8.0,61,0.00,,FEW043,0.00,990.00,VWS V14.01,2013-05-24 18:20:00,
2013-05-24 14:25:00,90.6,74.3,30.02,SE,127,4.0,7.0,59,0.00,,FEW043,0.00,970.00,VWS V14.01,2013-05-24 18:25:00,
2013-05-24 14:30:00,90.5,76.7,30.02,East,94,5.0,5.0,64,0.00,,FEW043,0.00,977.00,VWS V14.01,2013-05-24 18:30:00,
2013-05-24 14:35:00,90.6,75.8,30.02,ESE,119,7.0,10.0,62,0.00,,FEW043,0.00,970.00,VWS V14.01,2013-05-24 18:35:00,
2013-05-24 14:40:00,90.5,75.7,30.02,ESE,119,2.0,9.0,62,0.00,,FEW043,0.00,995.00,VWS V14.01,2013-05-24 18:40:00,
2013-05-24 14:45:00,90.3,74.0,30.02,SSW,209,5.0,6.0,59,0.00,,FEW043,0.00,954.00,VWS V14.01,2013-05-24 18:45:00,
2013-05-24 14:50:00,89.9,75.6,30.02,ENE,63,3.0,6.0,63,0.00,,SCT070,0.00,954.00,VWS V14.01,2013-05-24 18:50:00,
2013-05-24 14:55:00,89.7,75.0,30.02,NE,37,10.0,13.0,62,0.00,,SCT070,0.00,98.00,VWS V14.01,2013-05-24 18:55:00,
2013-05-24 15:00:00,88.5,74.8,30.02,East,88,3.0,7.0,64,0.00,,SCT070,0.00,104.00,VWS V14.01,2013-05-24 19:00:00,
2013-05-24 15:05:00,87.5,74.3,30.02,ESE,107,4.0,9.0,65,0.00,,SCT070,0.00,83.00,VWS V14.01,2013-05-24 19:05:00,
2013-05-24 15:10:00,86.8,74.1,30.02,NE,41,5.0,11.0,66,0.00,,SCT070,0.00,76.00,VWS V14.01,2013-05-24 19:10:00,
2013-05-24 15:15:00,86.4,74.2,30.02,ENE,67,4.0,5.0,67,0.00,,SCT070,0.00,121.00,VWS V14.01,2013-05-24 19:15:00,
2013-05-24 15:20:00,86.3,74.1,30.02,ESE,113,3.0,9.0,67,0.00,,SCT070,0.00,209.00,VWS V14.01,2013-05-24 19:20:00,
2013-05-24 15:25:00,87.0,75.2,30.02,NE,38,6.0,7.0,68,0.00,,SCT070,0.00,889.00,VWS V14.01,2013-05-24 19:25:00,
2013-05-24 15:30:00,88.1,75.8,30.02,SE,133,3.0,9.0,67,0.00,,SCT070,0.00,875.00,VWS V14.01,2013-05-24 19:30:00,
2013-05-24 15:35:00,88.7,76.3,30.02,NE,52,5.0,7.0,67,0.00,,SCT070,0.00,853.00,VWS V14.01,2013-05-24 19:35:00,
2013-05-24 15:40:00,89.1,75.3,30.02,NE,52,3.0,10.0,64,0.00,,SCT070,0.00,853.00,VWS V14.01,2013-05-24 19:40:00,
2013-05-24 15:45:00,89.3,76.0,30.01,SE,128,5.0,7.0,65,0.00,,SCT070,0.00,835.00,VWS V14.01,2013-05-24 19:45:00,
2013-05-24 15:50:00,89.3,75.5,30.01,East,97,1.0,4.0,64,0.00,,CLR,0.00,821.00,VWS V14.01,2013-05-24 19:50:00,
2013-05-24 15:55:00,89.5,75.2,30.01,NNE,29,4.0,7.0,63,0.00,,CLR,0.00,814.00,VWS V14.01,2013-05-24 19:55:00,
2013-05-24 16:00:00,89.8,75.5,30.01,East,84,3.0,11.0,63,0.00,,CLR,0.00,796.00,VWS V14.01,2013-05-24 20:00:00,
2013-05-24 16:05:00,89.8,75.5,30.01,ESE,121,3.0,8.0,63,0.00,,CLR,0.00,789.00,VWS V14.01,2013-05-24 20:05:00,
2013-05-24 16:10:00,89.6,75.3,30.01,NE,36,2.0,4.0,63,0.00,,CLR,0.00,772.00,VWS V14.01,2013-05-24 20:10:00,
2013-05-24 16:15:00,89.9,75.1,30.01,ENE,66,4.0,9.0,62,0.00,,CLR,0.00,733.00,VWS V14.01,2013-05-24 20:15:00,
2013-05-24 16:20:00,89.7,75.0,30.01,NE,42,5.0,10.0,62,0.00,,CLR,0.00,740.00,VWS V14.01,2013-05-24 20:20:00,
2013-05-24 16:25:00,89.4,74.7,30.01,NE,44,7.0,11.0,62,0.00,,CLR,0.00,722.00,VWS V14.01,2013-05-24 20:25:00,
2013-05-24 16:30:00,88.9,74.7,30.01,ENE,74,4.0,12.0,63,0.00,,CLR,0.00,701.00,VWS V14.01,2013-05-24 20:30:00,
2013-05-24 16:35:00,88.2,74.5,30.01,NE,36,4.0,7.0,64,0.00,,CLR,0.00,97.00,VWS V14.01,2013-05-24 20:35:00,
2013-05-24 16:40:00,87.7,74.5,30.01,NE,49,5.0,9.0,65,0.00,,CLR,0.00,95.00,VWS V14.01,2013-05-24 20:40:00,
2013-05-24 16:45:00,87.0,74.3,30.01,ENE,70,3.0,8.0,66,0.00,,CLR,0.00,102.00,VWS V14.01,2013-05-24 20:45:00,
2013-05-24 16:50:00,86.5,74.2,30.01,ENE,71,4.0,10.0,67,0.00,,CLR,0.00,176.00,VWS V14.01,2013-05-24 20:50:00,
2013-05-24 16:55:00,86.1,73.9,30.02,ENE,72,2.0,9.0,67,0.00,,CLR,0.00,128.00,VWS V14.01,2013-05-24 20:55:00,
2013-05-24 17:00:00,86.5,73.3,30.02,SE,130,4.0,8.0,65,0.00,,CLR,0.00,413.00,VWS V14.01,2013-05-24 21:00:00,
2013-05-24 17:05:00,86.6,73.4,30.02,NE,44,8.0,11.0,65,0.00,,CLR,0.00,229.00,VWS V14.01,2013-05-24 21:05:00,
2013-05-24 17:10:00,86.9,72.8,30.02,NNE,30,4.0,10.0,63,0.00,,CLR,0.00,624.00,VWS V14.01,2013-05-24 21:10:00,
2013-05-24 17:15:00,87.4,72.3,30.01,NE,45,3.0,8.0,61,0.00,,CLR,0.00,619.00,VWS V14.01,2013-05-24 21:15:00,
2013-05-24 17:20:00,87.9,71.8,30.01,NNE,33,3.0,6.0,59,0.00,,CLR,0.00,589.00,VWS V14.01,2013-05-24 21:20:00,
2013-05-24 17:25:00,88.1,72.5,30.02,ENE,67,3.0,11.0,60,0.00,,CLR,0.00,566.00,VWS V14.01,2013-05-24 21:25:00,
2013-05-24 17:30:00,88.1,72.5,30.02,NNE,28,5.0,12.0,60,0.00,,CLR,0.00,582.00,VWS V14.01,2013-05-24 21:30:00,
2013-05-24 17:35:00,87.9,71.8,30.03,NE,38,4.0,9.0,59,0.00,,CLR,0.00,555.00,VWS V14.01,2013-05-24 21:35:00,
2013-05-24 17:40:00,88.0,72.4,30.03,NE,46,3.0,8.0,60,0.00,,CLR,0.00,517.00,VWS V14.01,2013-05-24 21:40:00,
2013-05-24 17:45:00,87.9,72.3,30.02,NE,44,5.0,9.0,60,0.00,,CLR,0.00,95.00,VWS V14.01,2013-05-24 21:45:00,
2013-05-24 17:50:00,87.2,72.6,30.02,NNE,31,6.0,13.0,62,0.00,,CLR,0.00,95.00,VWS V14.01,2013-05-24 21:50:00,
2013-05-24 17:55:00,86.3,71.8,30.03,NNE,30,3.0,9.0,62,0.00,,CLR,0.00,70.00,VWS V14.01,2013-05-24 21:55:00,
2013-05-24 18:00:00,85.9,72.3,30.03,NNE,20,2.0,7.0,64,0.00,,CLR,0.00,42.00,VWS V14.01,2013-05-24 22:00:00,
2013-05-24 18:05:00,84.8,63.0,30.03,NNE,19,2.0,7.0,48,0.00,,CLR,0.00,63.00,VWS V14.01,2013-05-24 22:05:00,
2013-05-24 18:10:00,83.7,62.5,30.02,North,351,0.0,4.0,49,0.00,,CLR,0.00,111.00,VWS V14.01,2013-05-24 22:10:00,
2013-05-24 18:15:00,83.4,65.0,30.02,North,355,2.0,4.0,54,0.00,,CLR,0.00,111.00,VWS V14.01,2013-05-24 22:15:00,
2013-05-24 18:20:00,83.6,66.8,30.01,NNE,31,1.0,3.0,57,0.00,,CLR,0.00,156.00,VWS V14.01,2013-05-24 22:20:00,
2013-05-24 18:25:00,83.9,69.0,30.01,NNE,30,4.0,5.0,61,0.00,,CLR,0.00,339.00,VWS V14.01,2013-05-24 22:25:00,
2013-05-24 18:30:00,84.5,69.6,30.01,East,84,1.0,3.0,61,0.00,,CLR,0.00,279.00,VWS V14.01,2013-05-24 22:30:00,
2013-05-24 18:35:00,85.1,72.0,30.01,NE,47,7.0,9.0,65,0.00,,CLR,0.00,287.00,VWS V14.01,2013-05-24 22:35:00,
2013-05-24 18:40:00,85.1,72.5,30.01,NE,46,3.0,13.0,66,0.00,,CLR,0.00,278.00,VWS V14.01,2013-05-24 22:40:00,
2013-05-24 18:45:00,85.1,71.6,30.02,NE,35,5.0,7.0,64,0.00,,CLR,0.00,223.00,VWS V14.01,2013-05-24 22:45:00,
2013-05-24 18:50:00,85.1,72.0,30.02,NE,42,4.0,7.0,65,0.00,,CLR,0.00,181.00,VWS V14.01,2013-05-24 22:50:00,
2013-05-24 18:55:00,85.0,72.4,30.02,NE,36,4.0,8.0,66,0.00,,CLR,0.00,204.00,VWS V14.01,2013-05-24 22:55:00,
2013-05-24 19:00:00,84.6,72.9,30.02,NE,36,6.0,6.0,68,0.00,,SCT044,0.00,186.00,VWS V14.01,2013-05-24 23:00:00,
2013-05-24 19:05:00,84.4,72.7,30.02,SSE,156,5.0,7.0,68,0.00,,SCT044,0.00,172.00,VWS V14.01,2013-05-24 23:05:00,
2013-05-24 19:10:00,84.3,73.0,30.03,ENE,69,3.0,5.0,69,0.00,,SCT044,0.00,163.00,VWS V14.01,2013-05-24 23:10:00,
2013-05-24 19:15:00,84.1,72.4,30.03,NE,50,3.0,8.0,68,0.00,,SCT044,0.00,130.00,VWS V14.01,2013-05-24 23:15:00,
2013-05-24 19:20:00,84.0,72.3,30.03,ENE,71,2.0,6.0,68,0.00,,SCT044,0.00,113.00,VWS V14.01,2013-05-24 23:20:00,
2013-05-24 19:25:00,83.9,72.7,30.03,East,92,3.0,5.0,69,0.00,,SCT044,0.00,70.00,VWS V14.01,2013-05-24 23:25:00,
2013-05-24 19:30:00,83.7,72.5,30.02,NE,49,4.0,7.0,69,0.00,,SCT044,0.00,44.00,VWS V14.01,2013-05-24 23:30:00,
2013-05-24 19:35:00,83.5,72.3,30.02,NE,38,3.0,5.0,69,0.00,,SCT044,0.00,33.00,VWS V14.01,2013-05-24 23:35:00,
2013-05-24 19:40:00,83.2,72.0,30.02,East,95,5.0,7.0,69,0.00,,SCT044,0.00,32.00,VWS V14.01,2013-05-24 23:40:00,
2013-05-24 19:45:00,83.1,72.3,30.02,NNE,32,8.0,8.0,70,0.00,,SCT044,0.00,25.00,VWS V14.01,2013-05-24 23:45:00,
2013-05-24 19:50:00,82.9,72.5,30.02,NE,43,3.0,5.0,71,0.00,,SCT120,0.00,16.00,VWS V14.01,2013-05-24 23:50:00,
2013-05-24 19:55:00,82.7,72.3,30.02,NE,44,2.0,4.0,71,0.00,,SCT120,0.00,9.00,VWS V14.01,2013-05-24 23:55:00,
2013-05-24 20:00:00,82.4,72.5,30.02,NE,51,3.0,5.0,72,0.00,,SCT120,0.00,5.00,VWS V14.01,2013-05-25 00:00:00,
2013-05-24 20:05:00,82.2,72.3,30.02,NE,46,5.0,8.0,72,0.00,,SCT120,0.00,0.00,VWS V14.01,2013-05-25 00:05:00,
2013-05-24 20:10:00,82.1,72.2,30.02,East,88,2.0,6.0,72,0.00,,SCT120,0.00,0.00,VWS V14.01,2013-05-25 00:10:00,
2013-05-24 20:15:00,82.0,72.5,30.03,NE,40,5.0,5.0,73,0.00,,SCT120,0.00,0.00,VWS V14.01,2013-05-25 00:15:00,
2013-05-24 20:20:00,82.1,73.0,30.03,ENE,67,2.0,4.0,74,0.00,,CLR,0.00,0.00,VWS V14.01,2013-05-25 00:20:00,
2013-05-24 20:25:00,82.0,73.3,30.04,NE,49,3.0,3.0,75,0.00,,CLR,0.00,0.00,VWS V14.01,2013-05-25 00:25:00,
2013-05-24 20:30:00,81.8,73.1,30.04,East,88,3.0,5.0,75,0.00,,SCT120,0.00,0.00,VWS V14.01,2013-05-25 00:30:00,
2013-05-24 20:35:00,81.6,72.5,30.04,ESE,122,3.0,7.0,74,0.00,,SCT120,0.00,0.00,VWS V14.01,2013-05-25 00:35:00,
2013-05-24 20:40:00,81.3,72.6,30.04,ESE,110,1.0,3.0,75,0.00,,CLR,0.00,0.00,VWS V14.01,2013-05-25 00:40:00,
2013-05-24 20:45:00,81.3,72.6,30.05,ENE,70,1.0,2.0,75,0.00,,CLR,0.00,0.00,VWS V14.01,2013-05-25 00:45:00,
2013-05-24 20:50:00,81.2,72.5,30.05,ENE,73,1.0,2.0,75,0.00,,CLR,0.00,0.00,VWS V14.01,2013-05-25 00:50:00,
2013-05-24 20:55:00,81.1,72.8,30.04,East,89,1.0,3.0,76,0.00,,CLR,0.00,0.00,VWS V14.01,2013-05-25 00:55:00,
2013-05-24 21:00:00,80.9,72.6,30.05,NE,51,0.0,3.0,76,0.00,,CLR,0.00,0.00,VWS V14.01,2013-05-25 01:00:00,
2013-05-24 21:05:00,80.8,72.1,30.05,ENE,75,0.0,2.0,75,0.00,,CLR,0.00,0.00,VWS V14.01,2013-05-25 01:05:00,
2013-05-24 21:10:00,80.8,72.5,30.05,ENE,65,1.0,3.0,76,0.00,,CLR,0.00,0.00,VWS V14.01,2013-05-25 01:10:00,
2013-05-24 21:15:00,80.8,72.5,30.05,East,88,2.0,4.0,76,0.00,,CLR,0.00,0.00,VWS V14.01,2013-05-25 01:15:00,
2013-05-24 21:20:00,80.8,72.9,30.05,SE,132,2.0,3.0,77,0.00,,CLR,0.00,0.00,VWS V14.01,2013-05-25 01:20:00,
2013-05-24 21:25:00,80.8,72.9,30.05,SE,132,1.0,3.0,77,0.00,,CLR,0.00,0.00,VWS V14.01,2013-05-25 01:25:00,
2013-05-24 21:30:00,80.7,72.8,30.05,SE,126,2.0,3.0,77,0.00,,CLR,0.00,0.00,VWS V14.01,2013-05-25 01:30:00,
2013-05-24 21:35:00,80.6,72.7,30.06,East,82,1.0,2.0,77,0.00,,CLR,0.00,0.00,VWS V14.01,2013-05-25 01:35:00,
2013-05-24 21:40:00,80.5,72.6,30.06,East,87,2.0,3.0,77,0.00,,CLR,0.00,0.00,VWS V14.01,2013-05-25 01:40:00,
2013-05-24 21:45:00,80.5,72.6,30.06,SE,126,2.0,3.0,77,0.00,,CLR,0.00,0.00,VWS V14.01,2013-05-25 01:45:00,
2013-05-24 21:50:00,80.5,73.0,30.06,SE,135,3.0,3.0,78,0.00,,CLR,0.00,0.00,VWS V14.01,2013-05-25 01:50:00,
2013-05-24 21:55:00,80.5,73.0,30.06,SE,130,2.0,2.0,78,0.00,,CLR,0.00,0.00,VWS V14.01,2013-05-25 01:55:00,
2013-05-24 22:00:00,80.3,72.8,30.06,East,84,3.0,3.0,78,0.00,,CLR,0.00,0.00,VWS V14.01,2013-05-25 02:00:00,
2013-05-24 22:05:00,80.3,72.8,30.07,SE,130,0.0,2.0,78,0.00,,CLR,0.00,0.00,VWS V14.01,2013-05-25 02:05:00,
2013-05-24 22:10:00,80.2,72.7,30.07,SE,130,0.0,1.0,78,0.00,,CLR,0.00,0.00,VWS V14.01,2013-05-25 02:10:00,
2013-05-24 22:15:00,80.1,72.6,30.07,SE,130,0.0,1.0,78,0.00,,CLR,0.00,0.00,VWS V14.01,2013-05-25 02:15:00,
2013-05-24 22:20:00,80.0,72.5,30.07,SE,130,0.0,0.0,78,0.00,,CLR,0.00,0.00,VWS V14.01,2013-05-25 02:20:00,
2013-05-24 22:25:00,79.9,72.4,30.07,SE,130,0.0,0.0,78,0.00,,CLR,0.00,0.00,VWS V14.01,2013-05-25 02:25:00,
2013-05-24 22:30:00,79.8,72.7,30.07,SE,130,1.0,2.0,79,0.00,,CLR,0.00,0.00,VWS V14.01,2013-05-25 02:30:00,
2013-05-24 22:35:00,79.6,72.5,30.07,SE,130,0.0,1.0,79,0.00,,CLR,0.00,0.00,VWS V14.01,2013-05-25 02:35:00,
2013-05-24 22:40:00,79.6,72.9,30.07,SE,130,0.0,0.0,80,0.00,,CLR,0.00,0.00,VWS V14.01,2013-05-25 02:40:00,
2013-05-24 22:45:00,79.5,72.8,30.07,SE,130,0.0,0.0,80,0.00,,CLR,0.00,0.00,VWS V14.01,2013-05-25 02:45:00,
2013-05-24 22:50:00,79.4,72.7,30.07,SE,130,0.0,1.0,80,0.00,,CLR,0.00,0.00,VWS V14.01,2013-05-25 02:50:00,
2013-05-24 22:55:00,79.3,73.0,30.07,SE,130,0.0,1.0,81,0.00,,CLR,0.00,0.00,VWS V14.01,2013-05-25 02:55:00,
2013-05-24 23:00:00,79.2,72.9,30.07,SE,130,0.0,0.0,81,0.00,,CLR,0.00,0.00,VWS V14.01,2013-05-25 03:00:00,
2013-05-24 23:05:00,79.1,72.8,30.07,SE,130,1.0,1.0,81,0.00,,CLR,0.00,0.00,VWS V14.01,2013-05-25 03:05:00,
2013-05-24 23:10:00,79.1,72.8,30.07,SE,130,0.0,0.0,81,0.00,,CLR,0.00,0.00,VWS V14.01,2013-05-25 03:10:00,
2013-05-24 23:15:00,79.1,73.1,30.07,SE,130,0.0,1.0,82,0.00,,CLR,0.00,0.00,VWS V14.01,2013-05-25 03:15:00,
2013-05-24 23:20:00,79.1,73.1,30.07,SE,130,0.0,0.0,82,0.00,,CLR,0.00,0.00,VWS V14.01,2013-05-25 03:20:00,
2013-05-24 23:25:00,79.0,73.0,30.07,SE,130,0.0,0.0,82,0.00,,CLR,0.00,0.00,VWS V14.01,2013-05-25 03:25:00,
2013-05-24 23:30:00,78.8,73.2,30.07,SE,130,0.0,0.0,83,0.00,,CLR,0.00,0.00,VWS V14.01,2013-05-25 03:30:00,
2013-05-24 23:35:00,78.7,73.1,30.07,SE,130,0.0,0.0,83,0.00,,CLR,0.00,0.00,VWS V14.01,2013-05-25 03:35:00,
2013-05-24 23:40:00,78.6,73.0,30.07,SE,130,0.0,0.0,83,0.00,,CLR,0.00,0.00,VWS V14.01,2013-05-25 03:40:00,
2013-05-24 23:45:00,78.5,72.9,30.07,SE,130,0.0,0.0,83,0.00,,CLR,0.00,0.00,VWS V14.01,2013-05-25 03:45:00,
2013-05-24 23:50:00,78.4,72.8,30.07,SE,130,0.0,0.0,83,0.00,,CLR,0.00,0.00,VWS V14.01,2013-05-25 03:50:00,
2013-05-24 23:55:00,78.3,73.1,30.07,SE,130,0.0,0.0,84,0.00,,CLR,0.00,0.00,VWS V14.01,2013-05-25 03:55:00,